Powrót do katalogu

FENGYUN 1C DEB

AktywnyPO
NORAD 29767·DEBRIS·🇨🇳 China

Wystrzelony May 10, 1999 z Taiyuan Satellite Launch Center

Loading…

Następne Przeloty (najbliższe 24 godziny)

TLE

ŚwieżeSource: Space-Track

Epoka: Sep 13, 2026, 10:29 UTC

1 29767U 99025BH  26256.43680852  .00003075  00000-0  11869-2 0  9995
2 29767  98.2175 204.5337 0326099 357.3969 126.8663 14.05532064994565

Śledź FENGYUN 1C DEB w czasie rzeczywistym z AllMySat

Download on the App Store